owner,sensor,date,latitude,longitude,vertical_datum,mass_concentration_of_oxygen_in_sea_water,qcFlag 
DISL,ioos:station:DISL:MHPA:1,2009-09-01T00:00:00Z,30.6671,-87.9365,2.722,3.9,1111122 
DISL,ioos:station:DISL:MHPA:1,2009-09-01T00:30:00Z,30.6671,-87.9365,2.693,4.35,1111122 
DISL,ioos:station:DISL:MHPA:1,2009-09-01T01:00:00Z,30.6671,-87.9365,2.614,4.95,1111122 
DISL,ioos:station:DISL:MHPA:1,2009-09-01T01:30:00Z,30.6671,-87.9365,2.587,5.26,1111122 
DISL,ioos:station:DISL:MHPA:1,2009-09-01T02:00:00Z,30.6671,-87.9365,2.612,5.69,1111122 
DISL,ioos:station:DISL:MHPA:1,2009-09-01T02:30:00Z,30.6671,-87.9365,2.598,5.28,1111122 
DISL,ioos:station:DISL:MHPA:1,2009-09-01T03:00:00Z,30.6671,-87.9365,2.569,5.09,1111122 
DISL,ioos:station:DISL:MHPA:1,2009-09-01T03:30:00Z,30.6671,-87.9365,2.682,5.12,1111122 
DISL,ioos:station:DISL:MHPA:1,2009-09-01T04:00:00Z,30.6671,-87.9365,2.741,5.14,1111122 
DISL,ioos:station:DISL:MHPA:1,2009-09-01T04:30:00Z,30.6671,-87.9365,2.795,5.41,1111122 
DISL,ioos:station:DISL:MHPA:1,2009-09-01T05:00:00Z,30.6671,-87.9365,2.897,5.58,1111122 
DISL,ioos:station:DISL:MHPA:1,2009-09-01T05:30:00Z,30.6671,-87.9365,2.988,5.17,1111122 
DISL,ioos:station:DISL:MHPA:1,2009-09-01T06:00:00Z,30.6671,-87.9365,3.028,5.43,1111122 
DISL,ioos:station:DISL:MHPA:1,2009-09-01T06:30:00Z,30.6671,-87.9365,3.111,4.99,1111122 
DISL,ioos:station:DISL:MHPA:1,2009-09-01T07:00:00Z,30.6671,-87.9365,3.221,5.27,1111122 
DISL,ioos:station:DISL:MHPA:1,2009-09-01T07:30:00Z,30.6671,-87.9365,3.232,4.99,1111122 
DISL,ioos:station:DISL:MHPA:1,2009-09-01T08:00:00Z,30.6671,-87.9365,3.307,5.62,1111122 
DISL,ioos:station:DISL:MHPA:1,2009-09-01T08:30:00Z,30.6671,-87.9365,3.333,5.59,1111122 
DISL,ioos:station:DISL:MHPA:1,2009-09-01T09:00:00Z,30.6671,-87.9365,3.308,5.31,1111122 
DISL,ioos:station:DISL:MHPA:1,2009-09-01T09:30:00Z,30.6671,-87.9365,3.386,5.19,1111122 
DISL,ioos:station:DISL:MHPA:1,2009-09-01T10:00:00Z,30.6671,-87.9365,3.446,5.11,1111122 
DISL,ioos:station:DISL:MHPA:1,2009-09-01T10:30:00Z,30.6671,-87.9365,3.536,5.13,1111122 
DISL,ioos:station:DISL:MHPA:1,2009-09-01T11:00:00Z,30.6671,-87.9365,3.596,4.71,1111122 
DISL,ioos:station:DISL:MHPA:1,2009-09-01T11:30:00Z,30.6671,-87.9365,3.634,4.24,1111122 
DISL,ioos:station:DISL:MHPA:1,2009-09-01T12:00:00Z,30.6671,-87.9365,3.725,4.47,1111122 
DISL,ioos:station:DISL:MHPA:1,2009-09-01T12:30:00Z,30.6671,-87.9365,3.85,4.52,1111122 
DISL,ioos:station:DISL:MHPA:1,2009-09-01T13:00:00Z,30.6671,-87.9365,3.949,4.07,1111122 
DISL,ioos:station:DISL:MHPA:1,2009-09-01T13:30:00Z,30.6671,-87.9365,4.002,4.64,1111122 
DISL,ioos:station:DISL:MHPA:1,2009-09-01T14:00:00Z,30.6671,-87.9365,4.172,4.86,1111122 
DISL,ioos:station:DISL:MHPA:1,2009-09-01T14:30:00Z,30.6671,-87.9365,4.239,4.97,1111122 
DISL,ioos:station:DISL:MHPA:1,2009-09-01T15:00:00Z,30.6671,-87.9365,4.278,5.26,1111122 
DISL,ioos:station:DISL:MHPA:1,2009-09-01T15:30:00Z,30.6671,-87.9365,4.322,5.59,1111122 
DISL,ioos:station:DISL:MHPA:1,2009-09-01T16:00:00Z,30.6671,-87.9365,4.324,5.27,1111122 
DISL,ioos:station:DISL:MHPA:1,2009-09-01T16:30:00Z,30.6671,-87.9365,4.316,5.4,1111122 
DISL,ioos:station:DISL:MHPA:1,2009-09-01T17:00:00Z,30.6671,-87.9365,4.288,5.2,1111122 
DISL,ioos:station:DISL:MHPA:1,2009-09-01T17:30:00Z,30.6671,-87.9365,4.263,5.5,1111122 
DISL,ioos:station:DISL:MHPA:1,2009-09-01T18:00:00Z,30.6671,-87.9365,4.208,6.02,1111122 
DISL,ioos:station:DISL:MHPA:1,2009-09-01T18:30:00Z,30.6671,-87.9365,4.104,5.9,1111122 
DISL,ioos:station:DISL:MHPA:1,2009-09-01T19:00:00Z,30.6671,-87.9365,4.008,6.23,1111122 
DISL,ioos:station:DISL:MHPA:1,2009-09-01T19:30:00Z,30.6671,-87.9365,3.858,5.61,1111122 
DISL,ioos:station:DISL:MHPA:1,2009-09-01T20:00:00Z,30.6671,-87.9365,3.728,5.64,1111122 
DISL,ioos:station:DISL:MHPA:1,2009-09-01T20:30:00Z,30.6671,-87.9365,3.583,6.11,1111122 
DISL,ioos:station:DISL:MHPA:1,2009-09-01T21:00:00Z,30.6671,-87.9365,3.444,6.18,1111122 
DISL,ioos:station:DISL:MHPA:1,2009-09-01T21:30:00Z,30.6671,-87.9365,3.332,6.63,1111122 
DISL,ioos:station:DISL:MHPA:1,2009-09-01T22:00:00Z,30.6671,-87.9365,3.243,6.15,1111122 
DISL,ioos:station:DISL:MHPA:1,2009-09-01T22:30:00Z,30.6671,-87.9365,3.112,5.85,1111122 
DISL,ioos:station:DISL:MHPA:1,2009-09-01T23:00:00Z,30.6671,-87.9365,3.011,5.8,1111122 
DISL,ioos:station:DISL:MHPA:1,2009-09-01T23:30:00Z,30.6671,-87.9365,2.915,5.92,1111122 
DISL,ioos:station:DISL:MHPA:1,2009-09-02T00:00:00Z,30.6671,-87.9365,2.809,5.89,1111122 
DISL,ioos:station:DISL:MHPA:1,2009-09-02T00:30:00Z,30.6671,-87.9365,2.739,5.09,1111122 
DISL,ioos:station:DISL:MHPA:1,2009-09-02T01:00:00Z,30.6671,-87.9365,2.692,6.72,1111122 
DISL,ioos:station:DISL:MHPA:1,2009-09-02T01:30:00Z,30.6671,-87.9365,2.663,6.75,1111122 
DISL,ioos:station:DISL:MHPA:1,2009-09-02T02:00:00Z,30.6671,-87.9365,2.609,6.64,1111122 
DISL,ioos:station:DISL:MHPA:1,2009-09-02T02:30:00Z,30.6671,-87.9365,2.6,6.02,1111122 
DISL,ioos:station:DISL:MHPA:1,2009-09-02T03:00:00Z,30.6671,-87.9365,2.574,5.82,1111122 
DISL,ioos:station:DISL:MHPA:1,2009-09-02T03:30:00Z,30.6671,-87.9365,2.58,6.38,1111122 
DISL,ioos:station:DISL:MHPA:1,2009-09-02T04:00:00Z,30.6671,-87.9365,2.597,6.67,1111122 
DISL,ioos:station:DISL:MHPA:1,2009-09-02T04:30:00Z,30.6671,-87.9365,2.668,6.15,1111122 
DISL,ioos:station:DISL:MHPA:1,2009-09-02T05:00:00Z,30.6671,-87.9365,2.734,6.54,1111122 
DISL,ioos:station:DISL:MHPA:1,2009-09-02T05:30:00Z,30.6671,-87.9365,2.799,6.2,1111122 
DISL,ioos:station:DISL:MHPA:1,2009-09-02T06:00:00Z,30.6671,-87.9365,2.852,6.22,1111122 
DISL,ioos:station:DISL:MHPA:1,2009-09-02T06:30:00Z,30.6671,-87.9365,2.905,6.41,1111122 
DISL,ioos:station:DISL:MHPA:1,2009-09-02T07:00:00Z,30.6671,-87.9365,2.961,6.18,1111122 
DISL,ioos:station:DISL:MHPA:1,2009-09-02T07:30:00Z,30.6671,-87.9365,3.019,5.98,1111122 
DISL,ioos:station:DISL:MHPA:1,2009-09-02T08:00:00Z,30.6671,-87.9365,3.112,5.65,1111122 
DISL,ioos:station:DISL:MHPA:1,2009-09-02T08:30:00Z,30.6671,-87.9365,3.179,4.71,1111122 
DISL,ioos:station:DISL:MHPA:1,2009-09-02T09:00:00Z,30.6671,-87.9365,3.31,5.28,1111122 
DISL,ioos:station:DISL:MHPA:1,2009-09-02T09:30:00Z,30.6671,-87.9365,3.297,5.61,1111122 
DISL,ioos:station:DISL:MHPA:1,2009-09-02T10:00:00Z,30.6671,-87.9365,3.375,5.35,1111122 
DISL,ioos:station:DISL:MHPA:1,2009-09-02T10:30:00Z,30.6671,-87.9365,3.517,5.16,1111122 
DISL,ioos:station:DISL:MHPA:1,2009-09-02T11:00:00Z,30.6671,-87.9365,3.629,5.46,1111122 
DISL,ioos:station:DISL:MHPA:1,2009-09-02T11:30:00Z,30.6671,-87.9365,3.738,5.55,1111122 
DISL,ioos:station:DISL:MHPA:1,2009-09-02T12:00:00Z,30.6671,-87.9365,3.825,5.03,1111122 
DISL,ioos:station:DISL:MHPA:1,2009-09-02T12:30:00Z,30.6671,-87.9365,3.935,4.56,1111122 
DISL,ioos:station:DISL:MHPA:1,2009-09-02T13:00:00Z,30.6671,-87.9365,4.066,4.61,1111122 
DISL,ioos:station:DISL:MHPA:1,2009-09-02T13:30:00Z,30.6671,-87.9365,4.167,4.46,1111122 
DISL,ioos:station:DISL:MHPA:1,2009-09-02T14:00:00Z,30.6671,-87.9365,4.278,4.51,1111122 
DISL,ioos:station:DISL:MHPA:1,2009-09-02T14:30:00Z,30.6671,-87.9365,4.365,4.49,1111122 
DISL,ioos:station:DISL:MHPA:1,2009-09-02T15:00:00Z,30.6671,-87.9365,4.405,4.26,1111122 
DISL,ioos:station:DISL:MHPA:1,2009-09-02T15:30:00Z,30.6671,-87.9365,4.413,3.89,1111122 
DISL,ioos:station:DISL:MHPA:1,2009-09-02T16:00:00Z,30.6671,-87.9365,4.475,3.79,1111122 
DISL,ioos:station:DISL:MHPA:1,2009-09-02T16:30:00Z,30.6671,-87.9365,4.55,3.78,1111122 
DISL,ioos:station:DISL:MHPA:1,2009-09-02T17:00:00Z,30.6671,-87.9365,4.512,3.9,1111122 
DISL,ioos:station:DISL:MHPA:1,2009-09-02T17:30:00Z,30.6671,-87.9365,4.505,4.04,1111122 
DISL,ioos:station:DISL:MHPA:1,2009-09-02T18:00:00Z,30.6671,-87.9365,4.443,4.23,1111122 
DISL,ioos:station:DISL:MHPA:1,2009-09-02T18:30:00Z,30.6671,-87.9365,4.374,4.46,1111122 
DISL,ioos:station:DISL:MHPA:1,2009-09-02T19:00:00Z,30.6671,-87.9365,4.306,4.84,1111122 
DISL,ioos:station:DISL:MHPA:1,2009-09-02T19:30:00Z,30.6671,-87.9365,4.146,4.99,1111122 
DISL,ioos:station:DISL:MHPA:1,2009-09-02T20:00:00Z,30.6671,-87.9365,3.984,5.36,1111122 
DISL,ioos:station:DISL:MHPA:1,2009-09-02T20:30:00Z,30.6671,-87.9365,3.889,5.68,1111122 
DISL,ioos:station:DISL:MHPA:1,2009-09-02T21:00:00Z,30.6671,-87.9365,3.762,5.67,1111122 
DISL,ioos:station:DISL:MHPA:1,2009-09-02T21:30:00Z,30.6671,-87.9365,3.615,6.38,1111122 
DISL,ioos:station:DISL:MHPA:1,2009-09-02T22:00:00Z,30.6671,-87.9365,3.621,5.26,1111122 
DISL,ioos:station:DISL:MHPA:1,2009-09-02T22:30:00Z,30.6671,-87.9365,3.473,6.0,1111122 
DISL,ioos:station:DISL:MHPA:1,2009-09-02T23:00:00Z,30.6671,-87.9365,3.224,7.16,1111122 
DISL,ioos:station:DISL:MHPA:1,2009-09-02T23:30:00Z,30.6671,-87.9365,3.093,5.85,1111122 
DISL,ioos:station:DISL:MHPA:1,2009-09-03T00:00:00Z,30.6671,-87.9365,3.048,6.02,1111122 
DISL,ioos:station:DISL:MHPA:1,2009-09-03T00:30:00Z,30.6671,-87.9365,3.054,6.06,1111122 
DISL,ioos:station:DISL:MHPA:1,2009-09-03T01:00:00Z,30.6671,-87.9365,3.015,5.21,1111122 
DISL,ioos:station:DISL:MHPA:1,2009-09-03T01:30:00Z,30.6671,-87.9365,3.036,5.26,1111122 
DISL,ioos:station:DISL:MHPA:1,2009-09-03T02:00:00Z,30.6671,-87.9365,2.913,5.25,1111122 
DISL,ioos:station:DISL:MHPA:1,2009-09-03T02:30:00Z,30.6671,-87.9365,2.905,5.56,1111122 
DISL,ioos:station:DISL:MHPA:1,2009-09-03T03:00:00Z,30.6671,-87.9365,2.88,5.59,1111122 
DISL,ioos:station:DISL:MHPA:1,2009-09-03T03:30:00Z,30.6671,-87.9365,2.787,5.1,1111122 
DISL,ioos:station:DISL:MHPA:1,2009-09-03T04:00:00Z,30.6671,-87.9365,2.802,5.8,1111122 
DISL,ioos:station:DISL:MHPA:1,2009-09-03T04:30:00Z,30.6671,-87.9365,2.896,5.75,1111122 
DISL,ioos:station:DISL:MHPA:1,2009-09-03T05:00:00Z,30.6671,-87.9365,2.936,5.68,1111122 
DISL,ioos:station:DISL:MHPA:1,2009-09-03T05:30:00Z,30.6671,-87.9365,3.102,5.57,1111122 
DISL,ioos:station:DISL:MHPA:1,2009-09-03T06:00:00Z,30.6671,-87.9365,3.163,5.36,1111122 
DISL,ioos:station:DISL:MHPA:1,2009-09-03T06:30:00Z,30.6671,-87.9365,3.233,5.33,1111122 
DISL,ioos:station:DISL:MHPA:1,2009-09-03T07:00:00Z,30.6671,-87.9365,3.255,4.88,1111122 
DISL,ioos:station:DISL:MHPA:1,2009-09-03T07:30:00Z,30.6671,-87.9365,3.263,4.63,1111122 
DISL,ioos:station:DISL:MHPA:1,2009-09-03T08:00:00Z,30.6671,-87.9365,3.391,4.63,1111122 
DISL,ioos:station:DISL:MHPA:1,2009-09-03T08:30:00Z,30.6671,-87.9365,3.461,4.77,1111122 
DISL,ioos:station:DISL:MHPA:1,2009-09-03T09:00:00Z,30.6671,-87.9365,3.586,4.63,1111122 
DISL,ioos:station:DISL:MHPA:1,2009-09-03T09:30:00Z,30.6671,-87.9365,3.633,4.37,1111122 
DISL,ioos:station:DISL:MHPA:1,2009-09-03T10:00:00Z,30.6671,-87.9365,3.638,4.51,1111122 
DISL,ioos:station:DISL:MHPA:1,2009-09-03T10:30:00Z,30.6671,-87.9365,3.64,5.3,1111122 
DISL,ioos:station:DISL:MHPA:1,2009-09-03T11:00:00Z,30.6671,-87.9365,3.723,5.71,1111122 
DISL,ioos:station:DISL:MHPA:1,2009-09-03T11:30:00Z,30.6671,-87.9365,3.826,4.72,1111122 
DISL,ioos:station:DISL:MHPA:1,2009-09-03T12:00:00Z,30.6671,-87.9365,3.898,4.34,1111122 
DISL,ioos:station:DISL:MHPA:1,2009-09-03T12:30:00Z,30.6671,-87.9365,4.007,4.21,1111122 
DISL,ioos:station:DISL:MHPA:1,2009-09-03T13:00:00Z,30.6671,-87.9365,4.041,3.99,1111122 
DISL,ioos:station:DISL:MHPA:1,2009-09-03T13:30:00Z,30.6671,-87.9365,4.122,4.25,1111122 
DISL,ioos:station:DISL:MHPA:1,2009-09-03T14:00:00Z,30.6671,-87.9365,4.187,3.95,1111122 
DISL,ioos:station:DISL:MHPA:1,2009-09-03T14:30:00Z,30.6671,-87.9365,4.283,3.51,1111122 
DISL,ioos:station:DISL:MHPA:1,2009-09-03T15:00:00Z,30.6671,-87.9365,4.432,3.97,1111122 
DISL,ioos:station:DISL:MHPA:1,2009-09-03T15:30:00Z,30.6671,-87.9365,4.386,4.03,1111122 
DISL,ioos:station:DISL:MHPA:1,2009-09-03T16:00:00Z,30.6671,-87.9365,4.488,4.61,1111122 
DISL,ioos:station:DISL:MHPA:1,2009-09-03T16:30:00Z,30.6671,-87.9365,4.559,4.7,1111122 
DISL,ioos:station:DISL:MHPA:1,2009-09-03T17:00:00Z,30.6671,-87.9365,4.665,4.97,1111122 
DISL,ioos:station:DISL:MHPA:1,2009-09-03T17:30:00Z,30.6671,-87.9365,4.744,5.52,1111122 
DISL,ioos:station:DISL:MHPA:1,2009-09-03T18:00:00Z,30.6671,-87.9365,4.762,5.54,1111122 
DISL,ioos:station:DISL:MHPA:1,2009-09-03T18:30:00Z,30.6671,-87.9365,4.713,5.21,1111122 
DISL,ioos:station:DISL:MHPA:1,2009-09-03T19:00:00Z,30.6671,-87.9365,4.649,5.4,1111122 
DISL,ioos:station:DISL:MHPA:1,2009-09-03T19:30:00Z,30.6671,-87.9365,4.556,5.79,1111122 
DISL,ioos:station:DISL:MHPA:1,2009-09-03T20:00:00Z,30.6671,-87.9365,4.47,5.72,1111122 
DISL,ioos:station:DISL:MHPA:1,2009-09-03T20:30:00Z,30.6671,-87.9365,4.345,5.78,1111122 
DISL,ioos:station:DISL:MHPA:1,2009-09-03T21:00:00Z,30.6671,-87.9365,4.234,5.71,1111122 
DISL,ioos:station:DISL:MHPA:1,2009-09-03T21:30:00Z,30.6671,-87.9365,4.082,5.14,1111122 
DISL,ioos:station:DISL:MHPA:1,2009-09-03T22:00:00Z,30.6671,-87.9365,3.897,5.06,1111122 
DISL,ioos:station:DISL:MHPA:1,2009-09-03T22:30:00Z,30.6671,-87.9365,3.785,5.31,1111122 
DISL,ioos:station:DISL:MHPA:1,2009-09-03T23:00:00Z,30.6671,-87.9365,3.715,6.41,1111122 
DISL,ioos:station:DISL:MHPA:1,2009-09-03T23:30:00Z,30.6671,-87.9365,3.627,5.57,1111122 
DISL,ioos:station:DISL:MHPA:1,2009-09-04T00:00:00Z,30.6671,-87.9365,3.508,5.72,1111122 
DISL,ioos:station:DISL:MHPA:1,2009-09-04T00:30:00Z,30.6671,-87.9365,3.565,5.7,1111122 
DISL,ioos:station:DISL:MHPA:1,2009-09-04T01:00:00Z,30.6671,-87.9365,3.502,4.66,1111122 
DISL,ioos:station:DISL:MHPA:1,2009-09-04T01:30:00Z,30.6671,-87.9365,3.46,4.29,1111122 
DISL,ioos:station:DISL:MHPA:1,2009-09-04T02:00:00Z,30.6671,-87.9365,3.42,4.6,1111122 
DISL,ioos:station:DISL:MHPA:1,2009-09-04T02:30:00Z,30.6671,-87.9365,3.404,4.89,1111122 
DISL,ioos:station:DISL:MHPA:1,2009-09-04T03:00:00Z,30.6671,-87.9365,3.363,4.52,1111122 
DISL,ioos:station:DISL:MHPA:1,2009-09-04T03:30:00Z,30.6671,-87.9365,3.399,4.93,1111122 
DISL,ioos:station:DISL:MHPA:1,2009-09-04T04:00:00Z,30.6671,-87.9365,3.407,4.78,1111122 
DISL,ioos:station:DISL:MHPA:1,2009-09-04T04:30:00Z,30.6671,-87.9365,3.459,4.04,1111122 
DISL,ioos:station:DISL:MHPA:1,2009-09-04T05:00:00Z,30.6671,-87.9365,3.539,3.83,1111122 
DISL,ioos:station:DISL:MHPA:1,2009-09-04T05:30:00Z,30.6671,-87.9365,3.627,3.94,1111122 
DISL,ioos:station:DISL:MHPA:1,2009-09-04T06:00:00Z,30.6671,-87.9365,3.646,4.04,1111122 
DISL,ioos:station:DISL:MHPA:1,2009-09-04T06:30:00Z,30.6671,-87.9365,3.706,3.33,1111122 
DISL,ioos:station:DISL:MHPA:1,2009-09-04T07:00:00Z,30.6671,-87.9365,3.782,3.46,1111122 
DISL,ioos:station:DISL:MHPA:1,2009-09-04T07:30:00Z,30.6671,-87.9365,3.793,3.32,1111122 
DISL,ioos:station:DISL:MHPA:1,2009-09-04T08:00:00Z,30.6671,-87.9365,3.822,3.0,1111122 
DISL,ioos:station:DISL:MHPA:1,2009-09-04T08:30:00Z,30.6671,-87.9365,3.824,3.11,1111122 
DISL,ioos:station:DISL:MHPA:1,2009-09-04T09:00:00Z,30.6671,-87.9365,3.816,3.18,1111122 
DISL,ioos:station:DISL:MHPA:1,2009-09-04T09:30:00Z,30.6671,-87.9365,3.824,3.33,1111122 
DISL,ioos:station:DISL:MHPA:1,2009-09-04T10:00:00Z,30.6671,-87.9365,3.831,3.86,1111122 
DISL,ioos:station:DISL:MHPA:1,2009-09-04T10:30:00Z,30.6671,-87.9365,3.796,3.85,1111122 
DISL,ioos:station:DISL:MHPA:1,2009-09-04T11:00:00Z,30.6671,-87.9365,3.819,3.77,1111122 
DISL,ioos:station:DISL:MHPA:1,2009-09-04T11:30:00Z,30.6671,-87.9365,3.842,3.66,1111122 
DISL,ioos:station:DISL:MHPA:1,2009-09-04T12:00:00Z,30.6671,-87.9365,3.826,3.17,1111122 
DISL,ioos:station:DISL:MHPA:1,2009-09-04T12:30:00Z,30.6671,-87.9365,3.855,3.39,1111122 
DISL,ioos:station:DISL:MHPA:1,2009-09-04T13:00:00Z,30.6671,-87.9365,3.911,3.34,1111122 
DISL,ioos:station:DISL:MHPA:1,2009-09-04T13:30:00Z,30.6671,-87.9365,3.966,3.03,1111122 
DISL,ioos:station:DISL:MHPA:1,2009-09-04T14:00:00Z,30.6671,-87.9365,4.019,3.2,1111122 
DISL,ioos:station:DISL:MHPA:1,2009-09-04T14:30:00Z,30.6671,-87.9365,4.13,3.53,1111122 
DISL,ioos:station:DISL:MHPA:1,2009-09-04T15:00:00Z,30.6671,-87.9365,4.23,4.39,1111122 
DISL,ioos:station:DISL:MHPA:1,2009-09-04T15:30:00Z,30.6671,-87.9365,4.346,4.65,1111122 
DISL,ioos:station:DISL:MHPA:1,2009-09-04T16:00:00Z,30.6671,-87.9365,4.405,5.3,1111122 
DISL,ioos:station:DISL:MHPA:1,2009-09-04T16:30:00Z,30.6671,-87.9365,4.521,5.3,1111122 
DISL,ioos:station:DISL:MHPA:1,2009-09-04T17:00:00Z,30.6671,-87.9365,4.622,5.28,1111122 
DISL,ioos:station:DISL:MHPA:1,2009-09-04T17:30:00Z,30.6671,-87.9365,4.724,5.83,1111122 
DISL,ioos:station:DISL:MHPA:1,2009-09-04T18:00:00Z,30.6671,-87.9365,4.853,6.41,1111122 
DISL,ioos:station:DISL:MHPA:1,2009-09-04T18:30:00Z,30.6671,-87.9365,4.865,6.51,1111122 
DISL,ioos:station:DISL:MHPA:1,2009-09-04T19:00:00Z,30.6671,-87.9365,4.666,6.42,1111122 
DISL,ioos:station:DISL:MHPA:1,2009-09-04T19:30:00Z,30.6671,-87.9365,4.625,6.84,1111122 
DISL,ioos:station:DISL:MHPA:1,2009-09-04T20:00:00Z,30.6671,-87.9365,4.656,7.2,1111122 
DISL,ioos:station:DISL:MHPA:1,2009-09-04T20:30:00Z,30.6671,-87.9365,4.565,7.33,1111122 
DISL,ioos:station:DISL:MHPA:1,2009-09-04T21:00:00Z,30.6671,-87.9365,4.621,6.41,1111122 
DISL,ioos:station:DISL:MHPA:1,2009-09-04T21:30:00Z,30.6671,-87.9365,4.583,6.99,1111122 
DISL,ioos:station:DISL:MHPA:1,2009-09-04T22:00:00Z,30.6671,-87.9365,4.505,6.14,1111122 
DISL,ioos:station:DISL:MHPA:1,2009-09-04T22:30:00Z,30.6671,-87.9365,4.329,4.94,1111122 
DISL,ioos:station:DISL:MHPA:1,2009-09-04T23:00:00Z,30.6671,-87.9365,4.3,6.1,1111122 
DISL,ioos:station:DISL:MHPA:1,2009-09-04T23:30:00Z,30.6671,-87.9365,4.079,7.7,1111122 
DISL,ioos:station:DISL:MHPA:1,2009-09-05T00:00:00Z,30.6671,-87.9365,3.919,7.23,1111122 
DISL,ioos:station:DISL:MHPA:1,2009-09-05T00:30:00Z,30.6671,-87.9365,3.781,5.56,1111122 
DISL,ioos:station:DISL:MHPA:1,2009-09-05T01:00:00Z,30.6671,-87.9365,3.734,6.03,1111122 
DISL,ioos:station:DISL:MHPA:1,2009-09-05T01:30:00Z,30.6671,-87.9365,3.588,6.04,1111122 
DISL,ioos:station:DISL:MHPA:1,2009-09-05T02:00:00Z,30.6671,-87.9365,3.518,5.11,1111122 
DISL,ioos:station:DISL:MHPA:1,2009-09-05T02:30:00Z,30.6671,-87.9365,3.484,5.34,1111122 
DISL,ioos:station:DISL:MHPA:1,2009-09-05T03:00:00Z,30.6671,-87.9365,3.505,5.47,1111122 
DISL,ioos:station:DISL:MHPA:1,2009-09-05T03:30:00Z,30.6671,-87.9365,3.527,6.03,1111122 
DISL,ioos:station:DISL:MHPA:1,2009-09-05T04:00:00Z,30.6671,-87.9365,3.542,5.94,1111122 
DISL,ioos:station:DISL:MHPA:1,2009-09-05T04:30:00Z,30.6671,-87.9365,3.56,6.33,1111122 
DISL,ioos:station:DISL:MHPA:1,2009-09-05T05:00:00Z,30.6671,-87.9365,3.65,5.96,1111122 
DISL,ioos:station:DISL:MHPA:1,2009-09-05T05:30:00Z,30.6671,-87.9365,3.689,5.49,1111122 
DISL,ioos:station:DISL:MHPA:1,2009-09-05T06:00:00Z,30.6671,-87.9365,3.727,5.29,1111122 
DISL,ioos:station:DISL:MHPA:1,2009-09-05T06:30:00Z,30.6671,-87.9365,3.767,5.45,1111122 
DISL,ioos:station:DISL:MHPA:1,2009-09-05T07:00:00Z,30.6671,-87.9365,3.802,5.38,1111122 
DISL,ioos:station:DISL:MHPA:1,2009-09-05T07:30:00Z,30.6671,-87.9365,3.795,5.28,1111122 
DISL,ioos:station:DISL:MHPA:1,2009-09-05T08:00:00Z,30.6671,-87.9365,3.766,4.59,1111122 
DISL,ioos:station:DISL:MHPA:1,2009-09-05T08:30:00Z,30.6671,-87.9365,3.886,4.16,1111122 
DISL,ioos:station:DISL:MHPA:1,2009-09-05T09:00:00Z,30.6671,-87.9365,3.933,4.91,1111122 
DISL,ioos:station:DISL:MHPA:1,2009-09-05T09:30:00Z,30.6671,-87.9365,3.988,4.75,1111122 
DISL,ioos:station:DISL:MHPA:1,2009-09-05T10:00:00Z,30.6671,-87.9365,3.978,4.52,1111122 
DISL,ioos:station:DISL:MHPA:1,2009-09-05T10:30:00Z,30.6671,-87.9365,4.027,4.57,1111122 
DISL,ioos:station:DISL:MHPA:1,2009-09-05T11:00:00Z,30.6671,-87.9365,3.987,4.56,1111122 
DISL,ioos:station:DISL:MHPA:1,2009-09-05T11:30:00Z,30.6671,-87.9365,3.966,4.57,1111122 
DISL,ioos:station:DISL:MHPA:1,2009-09-05T12:00:00Z,30.6671,-87.9365,3.995,4.59,1111122 
DISL,ioos:station:DISL:MHPA:1,2009-09-05T12:30:00Z,30.6671,-87.9365,3.899,4.5,1111122 
DISL,ioos:station:DISL:MHPA:1,2009-09-05T13:00:00Z,30.6671,-87.9365,3.921,4.4,1111122 
DISL,ioos:station:DISL:MHPA:1,2009-09-05T13:30:00Z,30.6671,-87.9365,3.928,4.36,1111122 
DISL,ioos:station:DISL:MHPA:1,2009-09-05T14:00:00Z,30.6671,-87.9365,3.888,4.56,1111122 
DISL,ioos:station:DISL:MHPA:1,2009-09-05T14:30:00Z,30.6671,-87.9365,4.012,4.53,1111122 
DISL,ioos:station:DISL:MHPA:1,2009-09-05T15:00:00Z,30.6671,-87.9365,4.059,4.94,1111122 
DISL,ioos:station:DISL:MHPA:1,2009-09-05T15:30:00Z,30.6671,-87.9365,4.123,5.03,1111122 
DISL,ioos:station:DISL:MHPA:1,2009-09-05T16:00:00Z,30.6671,-87.9365,4.176,5.02,1111122 
DISL,ioos:station:DISL:MHPA:1,2009-09-05T16:30:00Z,30.6671,-87.9365,4.153,5.0,1111122 
DISL,ioos:station:DISL:MHPA:1,2009-09-05T17:00:00Z,30.6671,-87.9365,4.189,5.18,1111122 
DISL,ioos:station:DISL:MHPA:1,2009-09-05T17:30:00Z,30.6671,-87.9365,4.341,5.29,1111122 
DISL,ioos:station:DISL:MHPA:1,2009-09-05T18:00:00Z,30.6671,-87.9365,4.406,5.0,1111122 
DISL,ioos:station:DISL:MHPA:1,2009-09-05T18:30:00Z,30.6671,-87.9365,4.422,5.45,1111122 
DISL,ioos:station:DISL:MHPA:1,2009-09-05T19:00:00Z,30.6671,-87.9365,4.474,6.34,1111122 
DISL,ioos:station:DISL:MHPA:1,2009-09-05T19:30:00Z,30.6671,-87.9365,4.515,6.95,1111122 
DISL,ioos:station:DISL:MHPA:1,2009-09-05T20:00:00Z,30.6671,-87.9365,4.598,7.37,1111122 
DISL,ioos:station:DISL:MHPA:1,2009-09-05T20:30:00Z,30.6671,-87.9365,4.572,7.86,1111122 
DISL,ioos:station:DISL:MHPA:1,2009-09-05T21:00:00Z,30.6671,-87.9365,4.517,7.67,1111122 
DISL,ioos:station:DISL:MHPA:1,2009-09-05T21:30:00Z,30.6671,-87.9365,4.389,8.15,1111122 
DISL,ioos:station:DISL:MHPA:1,2009-09-05T22:00:00Z,30.6671,-87.9365,4.344,8.64,1111122 
DISL,ioos:station:DISL:MHPA:1,2009-09-05T22:30:00Z,30.6671,-87.9365,4.326,8.45,1111122 
DISL,ioos:station:DISL:MHPA:1,2009-09-05T23:00:00Z,30.6671,-87.9365,4.279,8.66,1111122 
DISL,ioos:station:DISL:MHPA:1,2009-09-05T23:30:00Z,30.6671,-87.9365,4.11,8.66,1111122 
DISL,ioos:station:DISL:MHPA:1,2009-09-06T00:00:00Z,30.6671,-87.9365,4.113,8.46,1111122 
DISL,ioos:station:DISL:MHPA:1,2009-09-06T00:30:00Z,30.6671,-87.9365,3.959,8.4,1111122 
DISL,ioos:station:DISL:MHPA:1,2009-09-06T01:00:00Z,30.6671,-87.9365,3.831,7.64,1111122 
DISL,ioos:station:DISL:MHPA:1,2009-09-06T01:30:00Z,30.6671,-87.9365,3.904,7.94,1111122 
DISL,ioos:station:DISL:MHPA:1,2009-09-06T02:00:00Z,30.6671,-87.9365,3.923,7.46,1111122 
DISL,ioos:station:DISL:MHPA:1,2009-09-06T02:30:00Z,30.6671,-87.9365,3.846,7.37,1111122 
DISL,ioos:station:DISL:MHPA:1,2009-09-06T03:00:00Z,30.6671,-87.9365,3.846,7.07,1111122 
DISL,ioos:station:DISL:MHPA:1,2009-09-06T03:30:00Z,30.6671,-87.9365,3.891,7.1,1111122 
DISL,ioos:station:DISL:MHPA:1,2009-09-06T04:00:00Z,30.6671,-87.9365,3.93,7.51,1111122 
DISL,ioos:station:DISL:MHPA:1,2009-09-06T04:30:00Z,30.6671,-87.9365,4.053,7.36,1111122 
DISL,ioos:station:DISL:MHPA:1,2009-09-06T05:00:00Z,30.6671,-87.9365,4.143,7.42,1111122 
DISL,ioos:station:DISL:MHPA:1,2009-09-06T05:30:00Z,30.6671,-87.9365,4.167,6.97,1111122 
DISL,ioos:station:DISL:MHPA:1,2009-09-06T06:00:00Z,30.6671,-87.9365,4.246,6.78,1111122 
DISL,ioos:station:DISL:MHPA:1,2009-09-06T06:30:00Z,30.6671,-87.9365,4.279,6.5,1111122 
DISL,ioos:station:DISL:MHPA:1,2009-09-06T07:00:00Z,30.6671,-87.9365,4.289,5.68,1111122 
DISL,ioos:station:DISL:MHPA:1,2009-09-06T07:30:00Z,30.6671,-87.9365,4.218,5.33,1111122 
DISL,ioos:station:DISL:MHPA:1,2009-09-06T08:00:00Z,30.6671,-87.9365,4.229,5.22,1111122 
DISL,ioos:station:DISL:MHPA:1,2009-09-06T08:30:00Z,30.6671,-87.9365,4.188,5.28,1111122 
DISL,ioos:station:DISL:MHPA:1,2009-09-06T09:00:00Z,30.6671,-87.9365,4.149,5.27,1111122 
DISL,ioos:station:DISL:MHPA:1,2009-09-06T09:30:00Z,30.6671,-87.9365,4.113,6.03,1111122 
DISL,ioos:station:DISL:MHPA:1,2009-09-06T10:00:00Z,30.6671,-87.9365,4.064,5.96,1111122 
DISL,ioos:station:DISL:MHPA:1,2009-09-06T10:30:00Z,30.6671,-87.9365,3.947,5.37,1111122 
DISL,ioos:station:DISL:MHPA:1,2009-09-06T11:00:00Z,30.6671,-87.9365,3.896,5.3,1111122 
DISL,ioos:station:DISL:MHPA:1,2009-09-06T11:30:00Z,30.6671,-87.9365,3.822,5.65,1111122 
DISL,ioos:station:DISL:MHPA:1,2009-09-06T12:00:00Z,30.6671,-87.9365,3.725,5.06,1111122 
DISL,ioos:station:DISL:MHPA:1,2009-09-06T12:30:00Z,30.6671,-87.9365,3.652,4.78,1111122 
DISL,ioos:station:DISL:MHPA:1,2009-09-06T13:00:00Z,30.6671,-87.9365,3.534,4.54,1111122 
DISL,ioos:station:DISL:MHPA:1,2009-09-06T13:30:00Z,30.6671,-87.9365,3.435,5.12,1111122 
DISL,ioos:station:DISL:MHPA:1,2009-09-06T14:00:00Z,30.6671,-87.9365,3.354,4.58,1111122 
DISL,ioos:station:DISL:MHPA:1,2009-09-06T14:30:00Z,30.6671,-87.9365,3.833,5.68,1111122 
DISL,ioos:station:DISL:MHPA:1,2009-09-06T15:00:00Z,30.6671,-87.9365,3.606,4.9,1111122 
DISL,ioos:station:DISL:MHPA:1,2009-09-06T15:30:00Z,30.6671,-87.9365,3.161,5.14,1111122 